STARLINK-35251

Last updated on Tue Oct 14 2025 00:02:05 GMT+0000 (Coordinated Universal Time)

1 65604U 25207N 25286.58341435 .00121044 00000+0 30651-2 0 9991 2 65604 97.6041 350.0386 0001740 88.5107 235.1953 15.39262591 5989

Satellite not in orbit

STARLINK-35251